Time,TemperatureF,DewpointF,PressureIn,WindDirection,WindDirectionDegrees,WindSpeedMPH,WindSpeedGustMPH,Humidity,HourlyPrecipIn,Conditions,Clouds,dailyrainin,SoftwareType,DateUTC
2013-02-08 00:00:00,68.0,63.7,29.82,North,0,1.1,4.0,86,0.00,,,0.00,WUHU216HW,2013-02-08 05:00:00,
2013-02-08 00:01:00,68.0,63.7,29.82,NW,315,1.3,4.0,86,0.00,,,0.00,WUHU216HW,2013-02-08 05:01:00,
2013-02-08 00:06:00,68.0,63.7,29.82,NW,315,3.1,6.5,86,0.00,,,0.00,WUHU216HW,2013-02-08 05:06:00,
2013-02-08 00:11:00,68.0,63.7,29.82,WSW,248,4.0,6.5,86,0.00,,,0.00,WUHU216HW,2013-02-08 05:11:00,
2013-02-08 00:16:00,68.0,64.0,29.82,WNW,293,4.5,4.5,87,0.00,,,0.00,WUHU216HW,2013-02-08 05:16:00,
2013-02-08 00:21:00,67.9,63.6,29.83,South,180,0.7,4.5,86,0.00,,,0.00,WUHU216HW,2013-02-08 05:21:00,
2013-02-08 00:26:00,67.7,63.6,29.83,SW,225,1.1,4.7,87,0.00,,,0.00,WUHU216HW,2013-02-08 05:26:00,
2013-02-08 00:31:00,67.7,63.6,29.83,WSW,248,2.5,4.7,87,0.00,,,0.00,WUHU216HW,2013-02-08 05:31:00,
2013-02-08 00:36:00,67.5,63.5,29.83,WSW,248,2.0,4.7,87,0.00,,,0.00,WUHU216HW,2013-02-08 05:36:00,
2013-02-08 00:41:00,67.3,63.3,29.83,West,270,2.5,4.3,87,0.00,,,0.00,WUHU216HW,2013-02-08 05:41:00,
2013-02-08 00:46:00,67.3,63.3,29.83,North,0,3.4,7.4,87,0.00,,,0.00,WUHU216HW,2013-02-08 05:46:00,
2013-02-08 00:51:00,67.1,63.1,29.83,WSW,248,1.6,7.4,87,0.00,,,0.00,WUHU216HW,2013-02-08 05:51:00,
2013-02-08 00:56:00,67.1,63.1,29.83,NNW,338,4.7,4.7,87,0.00,,,0.00,WUHU216HW,2013-02-08 05:56:00,
2013-02-08 01:01:00,67.1,63.1,29.83,South,180,1.1,4.7,87,0.00,,,0.00,WUHU216HW,2013-02-08 06:01:00,
2013-02-08 01:06:00,67.0,62.9,29.83,West,270,4.3,4.7,87,0.00,,,0.00,WUHU216HW,2013-02-08 06:06:00,
2013-02-08 01:11:00,67.0,62.9,29.83,NNW,338,0.7,4.3,87,0.00,,,0.00,WUHU216HW,2013-02-08 06:11:00,
2013-02-08 01:16:00,67.0,62.9,29.83,West,270,2.5,4.3,87,0.00,,,0.00,WUHU216HW,2013-02-08 06:16:00,
2013-02-08 01:21:00,67.0,62.9,29.83,SSE,158,0.4,4.0,87,0.00,,,0.00,WUHU216HW,2013-02-08 06:21:00,
2013-02-08 01:26:00,67.0,62.9,29.83,WNW,293,3.4,5.1,87,0.00,,,0.00,WUHU216HW,2013-02-08 06:26:00,
2013-02-08 01:31:00,67.0,62.7,29.83,West,270,0.9,5.1,86,0.00,,,0.00,WUHU216HW,2013-02-08 06:31:00,
2013-02-08 01:36:00,67.0,62.7,29.83,West,270,5.1,6.0,86,0.00,,,0.00,WUHU216HW,2013-02-08 06:36:00,
2013-02-08 01:41:00,67.1,62.8,29.84,SSE,158,0.4,6.0,86,0.00,,,0.00,WUHU216HW,2013-02-08 06:41:00,
2013-02-08 01:46:00,67.1,62.5,29.84,WNW,293,3.1,5.1,85,0.00,,,0.00,WUHU216HW,2013-02-08 06:46:00,
2013-02-08 01:51:00,67.3,62.6,29.84,West,270,4.0,5.4,85,0.00,,,0.00,WUHU216HW,2013-02-08 06:51:00,
2013-02-08 01:56:00,67.3,62.3,29.84,WSW,248,0.9,5.4,84,0.00,,,0.00,WUHU216HW,2013-02-08 06:56:00,
2013-02-08 02:01:00,67.3,62.3,29.84,West,270,1.1,4.9,84,0.00,,,0.00,WUHU216HW,2013-02-08 07:01:00,
2013-02-08 02:06:00,67.3,62.3,29.83,SW,225,0.4,4.9,84,0.00,,,0.00,WUHU216HW,2013-02-08 07:06:00,
2013-02-08 02:11:00,67.1,62.1,29.84,West,270,0.4,3.8,84,0.00,,,0.00,WUHU216HW,2013-02-08 07:11:00,
2013-02-08 02:16:00,67.0,61.9,29.83,WNW,293,0.4,4.3,84,0.00,,,0.00,WUHU216HW,2013-02-08 07:16:00,
2013-02-08 02:21:00,67.0,61.9,29.83,North,0,1.6,4.3,84,0.00,,,0.00,WUHU216HW,2013-02-08 07:21:00,
2013-02-08 02:26:00,66.8,61.7,29.83,WNW,293,2.7,6.3,84,0.00,,,0.00,WUHU216HW,2013-02-08 07:26:00,
2013-02-08 02:31:00,66.6,61.6,29.83,NW,315,0.4,6.3,84,0.00,,,0.00,WUHU216HW,2013-02-08 07:31:00,
2013-02-08 02:36:00,66.6,61.6,29.83,North,0,0.4,4.7,84,0.00,,,0.00,WUHU216HW,2013-02-08 07:36:00,
2013-02-08 02:41:00,66.4,61.7,29.83,NNW,338,1.6,5.1,85,0.00,,,0.00,WUHU216HW,2013-02-08 07:41:00,
2013-02-08 02:46:00,66.2,61.6,29.83,SE,135,1.6,5.1,85,0.00,,,0.00,WUHU216HW,2013-02-08 07:46:00,
2013-02-08 02:51:00,66.1,61.4,29.84,North,0,0.2,4.9,85,0.00,,,0.00,WUHU216HW,2013-02-08 07:51:00,
2013-02-08 02:56:00,65.9,61.2,29.84,NNW,338,0.4,2.7,85,0.00,,,0.00,WUHU216HW,2013-02-08 07:56:00,
2013-02-08 03:01:00,65.3,60.4,29.85,NNW,338,0.7,4.0,84,0.00,,,0.00,WUHU216HW,2013-02-08 08:01:00,
2013-02-08 03:06:00,64.8,60.2,29.85,NNW,338,0.9,4.0,85,0.00,,,0.00,WUHU216HW,2013-02-08 08:06:00,
2013-02-08 03:11:00,64.3,59.3,29.85,NW,315,0.9,6.0,84,0.00,,,0.00,WUHU216HW,2013-02-08 08:11:00,
2013-02-08 03:16:00,63.9,59.3,29.85,NW,315,1.1,6.0,85,0.00,,,0.00,WUHU216HW,2013-02-08 08:16:00,
2013-02-08 03:21:00,63.5,59.0,29.85,North,0,1.1,3.6,85,0.00,,,0.00,WUHU216HW,2013-02-08 08:21:00,
2013-02-08 03:26:00,63.2,58.6,29.86,NNW,338,0.4,4.7,85,0.00,,,0.00,WUHU216HW,2013-02-08 08:26:00,
2013-02-08 03:31:00,63.0,58.8,29.86,WNW,293,0.4,4.7,86,0.00,,,0.00,WUHU216HW,2013-02-08 08:31:00,
2013-02-08 03:36:00,63.0,58.8,29.86,NNW,338,1.8,2.5,86,0.00,,,0.00,WUHU216HW,2013-02-08 08:36:00,
2013-02-08 03:41:00,62.6,58.4,29.86,SSW,203,2.5,3.6,86,0.00,,,0.00,WUHU216HW,2013-02-08 08:41:00,
2013-02-08 03:46:00,62.5,58.2,29.86,WNW,293,1.8,4.5,86,0.00,,,0.00,WUHU216HW,2013-02-08 08:46:00,
2013-02-08 03:51:00,62.3,58.4,29.86,West,270,0.9,4.5,87,0.00,,,0.00,WUHU216HW,2013-02-08 08:51:00,
2013-02-08 03:56:00,61.9,57.7,29.87,NW,315,1.1,4.0,86,0.00,,,0.00,WUHU216HW,2013-02-08 08:56:00,
2013-02-08 04:01:00,61.7,57.5,29.87,ENE,68,3.1,4.3,86,0.00,,,0.00,WUHU216HW,2013-02-08 09:01:00,
2013-02-08 04:06:00,61.6,57.3,29.87,WNW,293,2.7,5.6,86,0.00,,,0.00,WUHU216HW,2013-02-08 09:06:00,
2013-02-08 04:11:00,61.2,56.7,29.88,West,270,2.5,5.6,85,0.00,,,0.00,WUHU216HW,2013-02-08 09:11:00,
2013-02-08 04:16:00,60.8,56.0,29.88,NNW,338,1.1,4.3,84,0.00,,,0.00,WUHU216HW,2013-02-08 09:16:00,
2013-02-08 04:21:00,60.5,55.6,29.88,WNW,293,4.0,4.7,84,0.00,,,0.00,WUHU216HW,2013-02-08 09:21:00,
2013-02-08 04:26:00,60.1,55.3,29.88,North,0,2.5,5.4,84,0.00,,,0.00,WUHU216HW,2013-02-08 09:26:00,
2013-02-08 04:31:00,59.9,55.1,29.88,West,270,2.0,5.4,84,0.00,,,0.00,WUHU216HW,2013-02-08 09:31:00,
2013-02-08 04:36:00,59.8,54.9,29.88,WSW,248,0.4,3.6,84,0.00,,,0.00,WUHU216HW,2013-02-08 09:36:00,
2013-02-08 04:41:00,59.8,54.9,29.88,NW,315,0.7,3.6,84,0.00,,,0.00,WUHU216HW,2013-02-08 09:41:00,
2013-02-08 04:46:00,59.6,54.7,29.89,West,270,1.3,5.4,84,0.00,,,0.00,WUHU216HW,2013-02-08 09:46:00,
2013-02-08 04:51:00,59.4,54.9,29.89,East,90,1.3,5.4,85,0.00,,,0.00,WUHU216HW,2013-02-08 09:51:00,
2013-02-08 04:56:00,59.4,54.9,29.89,NNW,338,0.4,3.1,85,0.00,,,0.00,WUHU216HW,2013-02-08 09:56:00,
2013-02-08 05:01:00,59.2,54.7,29.89,NNW,338,0.4,2.2,85,0.00,,,0.00,WUHU216HW,2013-02-08 10:01:00,
2013-02-08 05:06:00,59.0,54.5,29.89,NW,315,0.4,2.2,85,0.00,,,0.00,WUHU216HW,2013-02-08 10:06:00,
2013-02-08 05:11:00,59.0,54.5,29.89,West,270,0.4,2.0,85,0.00,,,0.00,WUHU216HW,2013-02-08 10:11:00,
2013-02-08 05:16:00,58.9,54.0,29.90,NW,315,3.8,5.4,84,0.00,,,0.00,WUHU216HW,2013-02-08 10:16:00,
2013-02-08 05:21:00,58.7,53.6,29.90,WSW,248,1.8,5.4,83,0.00,,,0.00,WUHU216HW,2013-02-08 10:21:00,
2013-02-08 05:26:00,58.5,53.4,29.90,WNW,293,0.0,5.1,83,0.00,,,0.00,WUHU216HW,2013-02-08 10:26:00,
2013-02-08 05:31:00,58.3,53.2,29.90,NNW,338,1.3,5.1,83,0.00,,,0.00,WUHU216HW,2013-02-08 10:31:00,
2013-02-08 05:36:00,58.1,53.0,29.90,NW,315,2.5,4.9,83,0.00,,,0.00,WUHU216HW,2013-02-08 10:36:00,
2013-02-08 05:41:00,58.1,53.0,29.90,WNW,293,3.1,4.5,83,0.00,,,0.00,WUHU216HW,2013-02-08 10:41:00,
2013-02-08 05:46:00,58.1,53.0,29.91,NW,315,1.3,4.5,83,0.00,,,0.00,WUHU216HW,2013-02-08 10:46:00,
2013-02-08 05:51:00,58.0,52.8,29.91,NW,315,2.9,4.0,83,0.00,,,0.00,WUHU216HW,2013-02-08 10:51:00,
2013-02-08 05:56:00,58.0,52.8,29.91,ESE,113,0.0,4.0,83,0.00,,,0.00,WUHU216HW,2013-02-08 10:56:00,
2013-02-08 06:01:00,58.0,52.8,29.91,NW,315,1.3,3.6,83,0.00,,,0.00,WUHU216HW,2013-02-08 11:01:00,
2013-02-08 06:06:00,58.0,52.8,29.91,NNW,338,1.6,2.5,83,0.00,,,0.00,WUHU216HW,2013-02-08 11:06:00,
2013-02-08 06:11:00,57.8,52.9,29.91,NW,315,0.0,1.6,84,0.00,,,0.00,WUHU216HW,2013-02-08 11:11:00,
2013-02-08 06:16:00,57.8,52.9,29.91,NW,315,0.0,1.6,84,0.00,,,0.00,WUHU216HW,2013-02-08 11:16:00,
2013-02-08 06:21:00,57.6,52.7,29.92,NW,315,0.0,2.2,84,0.00,,,0.00,WUHU216HW,2013-02-08 11:21:00,
2013-02-08 06:26:00,57.6,52.7,29.92,NNW,338,0.0,2.2,84,0.00,,,0.00,WUHU216HW,2013-02-08 11:26:00,
2013-02-08 06:31:00,57.6,52.7,29.92,SE,135,1.8,3.1,84,0.00,,,0.00,WUHU216HW,2013-02-08 11:31:00,
2013-02-08 06:36:00,57.4,52.6,29.93,NW,315,1.8,3.1,84,0.00,,,0.00,WUHU216HW,2013-02-08 11:36:00,
2013-02-08 06:41:00,57.2,52.4,29.93,NNW,338,0.4,2.0,84,0.00,,,0.00,WUHU216HW,2013-02-08 11:41:00,
2013-02-08 06:46:00,57.2,52.4,29.93,NW,315,0.7,2.0,84,0.00,,,0.00,WUHU216HW,2013-02-08 11:46:00,
2013-02-08 06:51:00,57.1,52.2,29.93,NNW,338,0.2,2.0,84,0.00,,,0.00,WUHU216HW,2013-02-08 11:51:00,
2013-02-08 06:56:00,56.9,52.0,29.94,NNE,23,0.2,2.2,84,0.00,,,0.00,WUHU216HW,2013-02-08 11:56:00,
2013-02-08 07:01:00,56.9,52.0,29.94,NNW,338,1.1,2.2,84,0.00,,,0.00,WUHU216HW,2013-02-08 12:01:00,
2013-02-08 07:06:00,56.7,51.6,29.95,WNW,293,1.8,3.8,83,0.00,,,0.00,WUHU216HW,2013-02-08 12:06:00,
2013-02-08 07:11:00,56.7,51.6,29.95,NNW,338,0.7,3.8,83,0.00,,,0.00,WUHU216HW,2013-02-08 12:11:00,
2013-02-08 07:16:00,56.7,51.6,29.95,NNW,338,1.8,5.6,83,0.00,,,0.00,WUHU216HW,2013-02-08 12:16:00,
2013-02-08 07:21:00,56.7,51.8,29.95,North,0,0.4,5.6,84,0.00,,,0.00,WUHU216HW,2013-02-08 12:21:00,
2013-02-08 07:26:00,56.9,52.0,29.95,NNE,23,2.0,3.6,84,0.00,,,0.00,WUHU216HW,2013-02-08 12:26:00,
2013-02-08 07:31:00,56.9,52.0,29.95,NW,315,0.2,4.3,84,0.00,,,0.00,WUHU216HW,2013-02-08 12:31:00,
2013-02-08 07:36:00,56.9,52.0,29.95,NNW,338,0.0,4.3,84,0.00,,,0.00,WUHU216HW,2013-02-08 12:36:00,
2013-02-08 07:41:00,56.9,52.0,29.96,NW,315,1.6,2.5,84,0.00,,,0.00,WUHU216HW,2013-02-08 12:41:00,
2013-02-08 07:46:00,57.1,52.2,29.96,North,0,0.4,1.8,84,0.00,,,0.00,WUHU216HW,2013-02-08 12:46:00,
2013-02-08 07:51:00,57.1,52.2,29.96,East,90,0.9,1.6,84,0.00,,,0.00,WUHU216HW,2013-02-08 12:51:00,
2013-02-08 07:56:00,57.2,52.4,29.96,NW,315,0.4,1.8,84,0.00,,,0.00,WUHU216HW,2013-02-08 12:56:00,
2013-02-08 08:01:00,57.2,52.4,29.96,NW,315,0.9,2.5,84,0.00,,,0.00,WUHU216HW,2013-02-08 13:01:00,
2013-02-08 08:06:00,57.2,52.1,29.97,NW,315,0.7,2.5,83,0.00,,,0.00,WUHU216HW,2013-02-08 13:06:00,
2013-02-08 08:11:00,57.2,52.1,29.97,WNW,293,0.4,2.5,83,0.00,,,0.00,WUHU216HW,2013-02-08 13:11:00,
2013-02-08 08:16:00,57.4,52.3,29.97,NW,315,1.6,3.1,83,0.00,,,0.00,WUHU216HW,2013-02-08 13:16:00,
2013-02-08 08:21:00,57.6,52.5,29.98,North,0,0.0,3.1,83,0.00,,,0.00,WUHU216HW,2013-02-08 13:21:00,
2013-02-08 08:26:00,57.6,52.5,29.98,NW,315,1.1,2.5,83,0.00,,,0.00,WUHU216HW,2013-02-08 13:26:00,
2013-02-08 08:31:00,58.0,52.8,29.98,NW,315,0.0,3.4,83,0.00,,,0.00,WUHU216HW,2013-02-08 13:31:00,
2013-02-08 08:36:00,58.3,53.2,29.98,NW,315,1.3,3.4,83,0.00,,,0.00,WUHU216HW,2013-02-08 13:36:00,
2013-02-08 08:41:00,58.3,52.8,29.98,ESE,113,0.2,3.6,82,0.00,,,0.00,WUHU216HW,2013-02-08 13:41:00,
2013-02-08 08:46:00,58.5,53.0,29.98,NNW,338,0.4,3.6,82,0.00,,,0.00,WUHU216HW,2013-02-08 13:46:00,
2013-02-08 08:51:00,58.7,53.2,29.98,West,270,0.0,2.7,82,0.00,,,0.00,WUHU216HW,2013-02-08 13:51:00,
2013-02-08 08:56:00,58.9,53.1,29.98,WNW,293,0.9,2.2,81,0.00,,,0.00,WUHU216HW,2013-02-08 13:56:00,
2013-02-08 09:01:00,59.0,52.9,29.98,WSW,248,2.2,2.5,80,0.00,,,0.00,WUHU216HW,2013-02-08 14:01:00,
2013-02-08 09:06:00,59.2,52.7,29.98,North,0,2.9,3.4,79,0.00,,,0.00,WUHU216HW,2013-02-08 14:06:00,
2013-02-08 09:11:00,59.6,53.5,29.99,NE,45,0.2,3.6,80,0.00,,,0.00,WUHU216HW,2013-02-08 14:11:00,
2013-02-08 09:16:00,60.1,54.0,29.99,WNW,293,1.6,3.6,80,0.00,,,0.00,WUHU216HW,2013-02-08 14:16:00,
2013-02-08 09:21:00,60.3,53.8,29.99,NW,315,5.8,5.8,79,0.00,,,0.00,WUHU216HW,2013-02-08 14:21:00,
2013-02-08 09:26:00,60.8,54.0,29.99,NNW,338,1.1,6.5,78,0.00,,,0.00,WUHU216HW,2013-02-08 14:26:00,
2013-02-08 09:31:00,61.0,53.8,29.99,NW,315,2.9,6.5,77,0.00,,,0.00,WUHU216HW,2013-02-08 14:31:00,
2013-02-08 09:36:00,61.0,53.5,29.99,NNE,23,0.4,4.3,76,0.00,,,0.00,WUHU216HW,2013-02-08 14:36:00,
2013-02-08 09:41:00,61.4,53.7,30.00,NNW,338,3.1,4.9,76,0.00,,,0.00,WUHU216HW,2013-02-08 14:41:00,
2013-02-08 09:46:00,61.6,53.9,30.00,West,270,2.5,4.9,76,0.00,,,0.00,WUHU216HW,2013-02-08 14:46:00,
2013-02-08 09:51:00,61.9,53.9,30.00,WNW,293,1.8,4.3,75,0.00,,,0.00,WUHU216HW,2013-02-08 14:51:00,
2013-02-08 09:56:00,61.9,53.2,30.00,WNW,293,0.9,4.0,73,0.00,,,0.00,WUHU216HW,2013-02-08 14:56:00,
2013-02-08 10:01:00,62.3,54.2,30.00,WNW,293,4.7,4.7,75,0.00,,,0.00,WUHU216HW,2013-02-08 15:01:00,
2013-02-08 10:06:00,62.6,53.5,30.00,NNW,338,0.9,4.7,72,0.00,,,0.00,WUHU216HW,2013-02-08 15:06:00,
2013-02-08 10:11:00,62.3,53.1,30.01,WNW,293,1.8,3.6,72,0.00,,,0.00,WUHU216HW,2013-02-08 15:11:00,
2013-02-08 10:16:00,62.5,53.6,30.01,NNW,338,2.5,3.4,73,0.00,,,0.00,WUHU216HW,2013-02-08 15:16:00,
2013-02-08 10:21:00,62.8,54.0,30.01,NW,315,1.1,4.3,73,0.00,,,0.00,WUHU216HW,2013-02-08 15:21:00,
2013-02-08 10:26:00,63.0,54.5,30.01,West,270,2.5,4.3,74,0.00,,,0.00,WUHU216HW,2013-02-08 15:26:00,
2013-02-08 10:31:00,63.5,55.1,30.01,West,270,3.4,4.3,74,0.00,,,0.00,WUHU216HW,2013-02-08 15:31:00,
2013-02-08 10:36:00,63.5,54.0,30.01,North,0,0.7,3.4,71,0.00,,,0.00,WUHU216HW,2013-02-08 15:36:00,
2013-02-08 10:41:00,63.4,54.2,30.01,NW,315,0.4,5.6,72,0.00,,,0.00,WUHU216HW,2013-02-08 15:41:00,
2013-02-08 10:46:00,63.7,54.2,30.02,NW,315,4.7,6.3,71,0.00,,,0.00,WUHU216HW,2013-02-08 15:46:00,
2013-02-08 10:51:00,63.9,54.4,30.02,West,270,4.0,6.3,71,0.00,,,0.00,WUHU216HW,2013-02-08 15:51:00,
2013-02-08 10:56:00,64.4,55.3,30.02,NW,315,2.7,4.7,72,0.00,,,0.00,WUHU216HW,2013-02-08 15:56:00,
2013-02-08 11:01:00,65.3,55.4,30.02,NNW,338,1.3,5.4,70,0.00,,,0.00,WUHU216HW,2013-02-08 16:01:00,
2013-02-08 11:06:00,65.5,55.1,30.02,NNW,338,1.1,5.4,69,0.00,,,0.00,WUHU216HW,2013-02-08 16:06:00,
2013-02-08 11:11:00,65.7,54.5,30.02,SW,225,3.1,4.7,67,0.00,,,0.00,WUHU216HW,2013-02-08 16:11:00,
2013-02-08 11:16:00,65.9,55.0,30.02,WSW,248,1.8,4.7,68,0.00,,,0.00,WUHU216HW,2013-02-08 16:16:00,
2013-02-08 11:21:00,65.9,55.0,30.02,WSW,248,7.6,7.6,68,0.00,,,0.00,WUHU216HW,2013-02-08 16:21:00,
2013-02-08 11:26:00,66.1,54.4,30.02,West,270,0.7,7.6,66,0.00,,,0.00,WUHU216HW,2013-02-08 16:26:00,
2013-02-08 11:31:00,66.1,54.4,30.02,NNW,338,2.9,7.6,66,0.00,,,0.00,WUHU216HW,2013-02-08 16:31:00,
2013-02-08 11:36:00,66.2,54.9,30.02,NW,315,1.1,6.3,67,0.00,,,0.00,WUHU216HW,2013-02-08 16:36:00,
2013-02-08 11:41:00,66.2,54.9,30.01,NNW,338,2.5,6.3,67,0.00,,,0.00,WUHU216HW,2013-02-08 16:41:00,
2013-02-08 11:46:00,66.4,54.3,30.01,NNW,338,1.8,4.3,65,0.00,,,0.00,WUHU216HW,2013-02-08 16:46:00,
2013-02-08 11:51:00,66.1,54.7,30.01,North,0,0.4,4.3,67,0.00,,,0.00,WUHU216HW,2013-02-08 16:51:00,
2013-02-08 11:56:00,66.1,54.4,30.01,NNW,338,2.0,3.6,66,0.00,,,0.00,WUHU216HW,2013-02-08 16:56:00,
2013-02-08 12:01:00,66.6,55.7,30.00,NW,315,0.7,3.4,68,0.00,,,0.00,WUHU216HW,2013-02-08 17:01:00,
2013-02-08 12:06:00,66.6,54.8,30.00,NW,315,0.4,3.4,66,0.00,,,0.00,WUHU216HW,2013-02-08 17:06:00,
2013-02-08 12:11:00,66.6,55.3,30.00,WSW,248,3.8,3.8,67,0.00,,,0.00,WUHU216HW,2013-02-08 17:11:00,
2013-02-08 12:16:00,66.6,54.8,30.00,WNW,293,2.0,3.8,66,0.00,,,0.00,WUHU216HW,2013-02-08 17:16:00,
2013-02-08 12:21:00,66.2,54.9,30.00,WNW,293,0.4,2.9,67,0.00,,,0.00,WUHU216HW,2013-02-08 17:21:00,
2013-02-08 12:26:00,67.5,55.7,30.00,NNW,338,3.1,4.0,66,0.00,,,0.00,WUHU216HW,2013-02-08 17:26:00,
2013-02-08 12:31:00,67.7,55.0,30.00,SSW,203,0.7,4.5,64,0.00,,,0.00,WUHU216HW,2013-02-08 17:31:00,
2013-02-08 12:36:00,67.9,55.2,30.00,WSW,248,1.1,4.5,64,0.00,,,0.00,WUHU216HW,2013-02-08 17:36:00,
2013-02-08 12:41:00,67.9,55.6,29.99,South,180,3.4,3.6,65,0.00,,,0.00,WUHU216HW,2013-02-08 17:41:00,
2013-02-08 12:46:00,68.9,56.7,29.99,NW,315,1.3,3.6,65,0.00,,,0.00,WUHU216HW,2013-02-08 17:46:00,
2013-02-08 12:51:00,69.8,57.1,29.99,WSW,248,4.3,4.3,64,0.00,,,0.00,WUHU216HW,2013-02-08 17:51:00,
2013-02-08 12:56:00,70.2,55.8,29.99,North,0,1.1,4.9,60,0.00,,,0.00,WUHU216HW,2013-02-08 17:56:00,
2013-02-08 13:01:00,69.8,55.9,29.99,NW,315,2.7,4.9,61,0.00,,,0.00,WUHU216HW,2013-02-08 18:01:00,
2013-02-08 13:06:00,70.2,56.2,29.99,SSW,203,0.9,4.0,61,0.00,,,0.00,WUHU216HW,2013-02-08 18:06:00,
2013-02-08 13:11:00,70.6,56.5,29.99,West,270,1.8,4.0,61,0.00,,,0.00,WUHU216HW,2013-02-08 18:11:00,
2013-02-08 13:16:00,71.1,56.1,29.99,NW,315,2.7,4.7,59,0.00,,,0.00,WUHU216HW,2013-02-08 18:16:00,
2013-02-08 13:21:00,71.1,56.1,29.99,WNW,293,2.9,4.9,59,0.00,,,0.00,WUHU216HW,2013-02-08 18:21:00,
2013-02-08 13:26:00,71.3,57.2,29.98,SSE,158,2.0,5.8,61,0.00,,,0.00,WUHU216HW,2013-02-08 18:26:00,
2013-02-08 13:31:00,71.5,55.9,29.98,NW,315,1.6,6.3,58,0.00,,,0.00,WUHU216HW,2013-02-08 18:31:00,
2013-02-08 13:36:00,70.9,55.9,29.98,WSW,248,4.0,6.3,59,0.00,,,0.00,WUHU216HW,2013-02-08 18:36:00,
2013-02-08 13:42:00,71.3,55.7,29.98,NNW,338,0.4,5.4,58,0.00,,,0.00,WUHU216HW,2013-02-08 18:42:00,
2013-02-08 13:47:00,71.5,56.9,29.98,NW,315,2.2,5.1,60,0.00,,,0.00,WUHU216HW,2013-02-08 18:47:00,
2013-02-08 13:52:00,72.0,56.9,29.98,SSW,203,1.8,4.9,59,0.00,,,0.00,WUHU216HW,2013-02-08 18:52:00,
2013-02-08 13:57:00,72.2,56.5,29.98,NW,315,0.4,4.9,58,0.00,,,0.00,WUHU216HW,2013-02-08 18:57:00,
2013-02-08 14:02:00,72.4,56.2,29.98,NW,315,1.8,4.7,57,0.00,,,0.00,WUHU216HW,2013-02-08 19:02:00,
2013-02-08 14:07:00,72.4,56.7,29.97,West,270,1.3,4.5,58,0.00,,,0.00,WUHU216HW,2013-02-08 19:07:00,
2013-02-08 14:12:00,72.2,56.1,29.97,NW,315,3.6,4.5,57,0.00,,,0.00,WUHU216HW,2013-02-08 19:12:00,
2013-02-08 14:17:00,72.0,55.9,29.97,WSW,248,2.5,4.9,57,0.00,,,0.00,WUHU216HW,2013-02-08 19:17:00,
2013-02-08 14:22:00,72.4,56.7,29.97,SW,225,1.8,4.9,58,0.00,,,0.00,WUHU216HW,2013-02-08 19:22:00,
2013-02-08 14:27:00,72.7,55.5,29.97,WSW,248,2.7,6.0,55,0.00,,,0.00,WUHU216HW,2013-02-08 19:27:00,
2013-02-08 14:32:00,71.8,55.7,29.96,North,0,0.4,6.0,57,0.00,,,0.00,WUHU216HW,2013-02-08 19:32:00,
2013-02-08 14:37:00,72.0,56.3,29.97,West,270,2.5,6.7,58,0.00,,,0.00,WUHU216HW,2013-02-08 19:37:00,
2013-02-08 14:42:00,72.4,55.7,29.96,West,270,5.4,6.7,56,0.00,,,0.00,WUHU216HW,2013-02-08 19:42:00,
2013-02-08 14:47:00,72.4,55.2,29.97,ESE,113,4.0,5.4,55,0.00,,,0.00,WUHU216HW,2013-02-08 19:47:00,
2013-02-08 14:52:00,72.4,56.2,29.97,NNW,338,0.7,5.4,57,0.00,,,0.00,WUHU216HW,2013-02-08 19:52:00,
2013-02-08 14:57:00,72.7,56.0,29.97,North,0,2.5,4.9,56,0.00,,,0.00,WUHU216HW,2013-02-08 19:57:00,
2013-02-08 15:02:00,72.5,56.3,29.96,NNW,338,1.8,4.9,57,0.00,,,0.00,WUHU216HW,2013-02-08 20:02:00,
2013-02-08 15:07:00,72.2,56.1,29.96,WSW,248,5.4,5.4,57,0.00,,,0.00,WUHU216HW,2013-02-08 20:07:00,
2013-02-08 15:12:00,72.5,56.3,29.97,West,270,0.7,6.9,57,0.00,,,0.00,WUHU216HW,2013-02-08 20:12:00,
2013-02-08 15:17:00,73.1,56.3,29.97,WSW,248,0.9,8.9,56,0.00,,,0.00,WUHU216HW,2013-02-08 20:17:00,
2013-02-08 15:22:00,72.9,56.2,29.97,West,270,1.6,8.9,56,0.00,,,0.00,WUHU216HW,2013-02-08 20:22:00,
2013-02-08 15:27:00,72.9,56.2,29.97,SW,225,0.9,6.0,56,0.00,,,0.00,WUHU216HW,2013-02-08 20:27:00,
2013-02-08 15:32:00,73.1,56.3,29.97,NNW,338,3.4,7.2,56,0.00,,,0.00,WUHU216HW,2013-02-08 20:32:00,
2013-02-08 15:37:00,72.7,56.0,29.97,NNW,338,1.1,7.2,56,0.00,,,0.00,WUHU216HW,2013-02-08 20:37:00,
2013-02-08 15:42:00,72.5,55.9,29.97,NW,315,2.0,4.0,56,0.00,,,0.00,WUHU216HW,2013-02-08 20:42:00,
2013-02-08 15:47:00,72.4,56.2,29.96,West,270,0.9,4.7,57,0.00,,,0.00,WUHU216HW,2013-02-08 20:47:00,
2013-02-08 15:52:00,72.2,55.5,29.96,SSW,203,0.7,4.7,56,0.00,,,0.00,WUHU216HW,2013-02-08 20:52:00,
2013-02-08 15:57:00,72.0,55.9,29.96,NW,315,0.4,4.0,57,0.00,,,0.00,WUHU216HW,2013-02-08 20:57:00,
2013-02-08 16:02:00,71.6,55.5,29.96,WSW,248,0.7,4.9,57,0.00,,,0.00,WUHU216HW,2013-02-08 21:02:00,
2013-02-08 16:07:00,71.6,56.1,29.96,North,0,1.8,4.9,58,0.00,,,0.00,WUHU216HW,2013-02-08 21:07:00,
2013-02-08 16:12:00,71.8,56.3,29.96,NNW,338,1.6,4.0,58,0.00,,,0.00,WUHU216HW,2013-02-08 21:12:00,
2013-02-08 16:17:00,71.8,56.3,29.96,SE,135,1.8,4.0,58,0.00,,,0.00,WUHU216HW,2013-02-08 21:17:00,
2013-02-08 16:22:00,71.6,56.1,29.96,NW,315,2.2,4.5,58,0.00,,,0.00,WUHU216HW,2013-02-08 21:22:00,
2013-02-08 16:27:00,71.6,56.1,29.97,NNW,338,1.8,4.5,58,0.00,,,0.00,WUHU216HW,2013-02-08 21:27:00,
2013-02-08 16:32:00,71.8,56.3,29.97,WNW,293,5.8,5.8,58,0.00,,,0.00,WUHU216HW,2013-02-08 21:32:00,
2013-02-08 16:37:00,72.0,56.3,29.97,NW,315,2.5,5.8,58,0.00,,,0.00,WUHU216HW,2013-02-08 21:37:00,
2013-02-08 16:42:00,72.0,56.3,29.97,NNW,338,1.1,6.0,58,0.00,,,0.00,WUHU216HW,2013-02-08 21:42:00,
2013-02-08 16:47:00,71.5,55.9,29.97,SSW,203,3.8,6.0,58,0.00,,,0.00,WUHU216HW,2013-02-08 21:47:00,
2013-02-08 16:52:00,70.7,55.3,29.97,NW,315,1.3,4.5,58,0.00,,,0.00,WUHU216HW,2013-02-08 21:52:00,
2013-02-08 16:57:00,70.2,55.3,29.97,NNW,338,1.6,4.7,59,0.00,,,0.00,WUHU216HW,2013-02-08 21:57:00,
2013-02-08 17:02:00,70.2,55.3,29.98,NNE,23,0.4,4.7,59,0.00,,,0.00,WUHU216HW,2013-02-08 22:02:00,
2013-02-08 17:07:00,69.8,54.9,29.97,South,180,1.8,4.0,59,0.00,,,0.00,WUHU216HW,2013-02-08 22:07:00,
2013-02-08 17:12:00,69.3,54.9,29.97,East,90,0.4,5.4,60,0.00,,,0.00,WUHU216HW,2013-02-08 22:12:00,
2013-02-08 17:17:00,68.9,55.0,29.98,NNW,338,3.8,5.4,61,0.00,,,0.00,WUHU216HW,2013-02-08 22:17:00,
2013-02-08 17:22:00,68.4,54.5,29.98,NW,315,2.2,3.8,61,0.00,,,0.00,WUHU216HW,2013-02-08 22:22:00,
2013-02-08 17:27:00,67.9,54.8,29.98,NW,315,0.9,4.7,63,0.00,,,0.00,WUHU216HW,2013-02-08 22:27:00,
2013-02-08 17:32:00,67.3,54.3,29.98,NW,315,0.0,4.7,63,0.00,,,0.00,WUHU216HW,2013-02-08 22:32:00,
2013-02-08 17:37:00,67.1,54.6,29.98,NW,315,0.4,2.2,64,0.00,,,0.00,WUHU216HW,2013-02-08 22:37:00,
2013-02-08 17:42:00,66.8,54.6,29.98,NW,315,1.1,4.0,65,0.00,,,0.00,WUHU216HW,2013-02-08 22:42:00,
2013-02-08 17:47:00,66.2,54.1,29.98,NNW,338,0.0,4.0,65,0.00,,,0.00,WUHU216HW,2013-02-08 22:47:00,
2013-02-08 17:52:00,65.9,54.2,29.99,SW,225,0.7,3.6,66,0.00,,,0.00,WUHU216HW,2013-02-08 22:52:00,
2013-02-08 17:57:00,65.5,53.8,30.00,North,0,0.2,1.8,66,0.00,,,0.00,WUHU216HW,2013-02-08 22:57:00,
2013-02-08 18:02:00,65.2,53.9,30.00,North,0,0.4,2.5,67,0.00,,,0.00,WUHU216HW,2013-02-08 23:02:00,
2013-02-08 18:07:00,64.6,53.8,30.00,WNW,293,1.3,3.4,68,0.00,,,0.00,WUHU216HW,2013-02-08 23:07:00,
2013-02-08 18:12:00,64.3,53.5,30.00,NW,315,1.3,3.4,68,0.00,,,0.00,WUHU216HW,2013-02-08 23:12:00,
2013-02-08 18:17:00,63.9,53.6,30.00,NW,315,0.7,1.8,69,0.00,,,0.00,WUHU216HW,2013-02-08 23:17:00,
2013-02-08 18:22:00,63.5,53.6,30.00,NNW,338,1.6,1.8,70,0.00,,,0.00,WUHU216HW,2013-02-08 23:22:00,
2013-02-08 18:27:00,63.0,53.1,30.00,NNW,338,0.2,4.7,70,0.00,,,0.00,WUHU216HW,2013-02-08 23:27:00,
2013-02-08 18:32:00,62.6,53.1,30.01,NW,315,1.6,4.7,71,0.00,,,0.00,WUHU216HW,2013-02-08 23:32:00,
2013-02-08 18:37:00,62.3,52.7,30.01,NNW,338,0.4,2.5,71,0.00,,,0.00,WUHU216HW,2013-02-08 23:37:00,
2013-02-08 18:42:00,61.9,52.8,30.01,NNW,338,2.2,4.7,72,0.00,,,0.00,WUHU216HW,2013-02-08 23:42:00,
2013-02-08 18:47:00,61.7,52.7,30.01,WSW,248,0.7,4.7,72,0.00,,,0.00,WUHU216HW,2013-02-08 23:47:00,
2013-02-08 18:52:00,61.6,52.5,30.01,NNW,338,1.8,2.7,72,0.00,,,0.00,WUHU216HW,2013-02-08 23:52:00,
2013-02-08 18:57:00,61.2,52.2,30.01,North,0,0.0,1.8,72,0.00,,,0.00,WUHU216HW,2013-02-08 23:57:00,
2013-02-08 19:02:00,61.0,52.0,30.02,WNW,293,0.0,2.5,72,0.00,,,0.00,WUHU216HW,2013-02-09 00:02:00,
2013-02-08 19:07:00,61.0,52.0,30.02,NW,315,0.0,2.5,72,0.00,,,0.00,WUHU216HW,2013-02-09 00:07:00,
2013-02-08 19:12:00,60.8,52.2,30.03,North,0,0.0,1.8,73,0.00,,,0.00,WUHU216HW,2013-02-09 00:12:00,
2013-02-08 19:17:00,60.5,52.2,30.03,NW,315,0.2,1.8,74,0.00,,,0.00,WUHU216HW,2013-02-09 00:17:00,
2013-02-08 19:22:00,60.3,52.0,30.03,NE,45,0.4,1.8,74,0.00,,,0.00,WUHU216HW,2013-02-09 00:22:00,
2013-02-08 19:27:00,60.1,52.2,30.03,WNW,293,0.7,2.5,75,0.00,,,0.00,WUHU216HW,2013-02-09 00:27:00,
2013-02-08 19:32:00,59.9,51.7,30.03,WNW,293,0.9,2.5,74,0.00,,,0.00,WUHU216HW,2013-02-09 00:32:00,
2013-02-08 19:37:00,59.9,51.7,30.03,WSW,248,0.4,2.0,74,0.00,,,0.00,WUHU216HW,2013-02-09 00:37:00,
2013-02-08 19:42:00,59.8,51.5,30.03,NW,315,0.4,1.8,74,0.00,,,0.00,WUHU216HW,2013-02-09 00:42:00,
2013-02-08 19:47:00,59.8,51.8,30.04,WNW,293,1.1,4.0,75,0.00,,,0.00,WUHU216HW,2013-02-09 00:47:00,
2013-02-08 19:52:00,59.6,52.0,30.04,NW,315,0.7,4.0,76,0.00,,,0.00,WUHU216HW,2013-02-09 00:52:00,
2013-02-08 19:57:00,59.4,52.2,30.04,North,0,1.8,2.7,77,0.00,,,0.00,WUHU216HW,2013-02-09 00:57:00,
2013-02-08 20:02:00,59.4,51.8,30.04,NW,315,1.1,2.7,76,0.00,,,0.00,WUHU216HW,2013-02-09 01:02:00,
2013-02-08 20:07:00,59.4,51.8,30.04,West,270,0.2,2.2,76,0.00,,,0.00,WUHU216HW,2013-02-09 01:07:00,
2013-02-08 20:12:00,59.2,51.7,30.04,WSW,248,1.3,1.8,76,0.00,,,0.00,WUHU216HW,2013-02-09 01:12:00,
2013-02-08 20:17:00,59.2,51.7,30.05,WNW,293,1.1,2.5,76,0.00,,,0.00,WUHU216HW,2013-02-09 01:17:00,
2013-02-08 20:22:00,59.0,52.2,30.05,NNW,338,0.2,2.5,78,0.00,,,0.00,WUHU216HW,2013-02-09 01:22:00,
2013-02-08 20:27:00,58.9,51.7,30.05,NW,315,1.1,1.8,77,0.00,,,0.00,WUHU216HW,2013-02-09 01:27:00,
2013-02-08 20:32:00,58.7,51.5,30.05,NW,315,0.4,1.6,77,0.00,,,0.00,WUHU216HW,2013-02-09 01:32:00,
2013-02-08 20:37:00,58.7,51.8,30.05,NNW,338,2.5,2.9,78,0.00,,,0.00,WUHU216HW,2013-02-09 01:37:00,
2013-02-08 20:42:00,58.5,51.7,30.06,WNW,293,0.0,2.9,78,0.00,,,0.00,WUHU216HW,2013-02-09 01:42:00,
2013-02-08 20:47:00,58.3,51.8,30.05,NNW,338,0.0,1.3,79,0.00,,,0.00,WUHU216HW,2013-02-09 01:47:00,
2013-02-08 20:52:00,58.3,51.8,30.06,West,270,0.0,1.3,79,0.00,,,0.00,WUHU216HW,2013-02-09 01:52:00,
2013-02-08 20:57:00,58.3,51.5,30.06,NW,315,0.0,0.9,78,0.00,,,0.00,WUHU216HW,2013-02-09 01:57:00,
2013-02-08 21:02:00,58.3,51.5,30.06,West,270,0.0,1.1,78,0.00,,,0.00,WUHU216HW,2013-02-09 02:02:00,
2013-02-08 21:07:00,58.1,51.3,30.06,WNW,293,0.0,1.1,78,0.00,,,0.00,WUHU216HW,2013-02-09 02:07:00,
2013-02-08 21:12:00,58.1,51.3,30.06,SE,135,0.0,0.4,78,0.00,,,0.00,WUHU216HW,2013-02-09 02:12:00,
2013-02-08 21:17:00,58.0,51.1,30.05,SE,135,0.0,0.4,78,0.00,,,0.00,WUHU216HW,2013-02-09 02:17:00,
2013-02-08 21:22:00,58.0,51.1,30.06,SE,135,0.0,0.0,78,0.00,,,0.00,WUHU216HW,2013-02-09 02:22:00,
2013-02-08 21:27:00,57.8,51.3,30.06,NW,315,0.0,0.0,79,0.00,,,0.00,WUHU216HW,2013-02-09 02:27:00,
2013-02-08 21:32:00,57.6,51.1,30.06,NW,315,0.0,0.0,79,0.00,,,0.00,WUHU216HW,2013-02-09 02:32:00,
2013-02-08 21:37:00,57.4,50.9,30.06,NW,315,0.0,0.0,79,0.00,,,0.00,WUHU216HW,2013-02-09 02:37:00,
2013-02-08 21:42:00,57.1,50.6,30.06,NW,315,0.0,0.0,79,0.00,,,0.00,WUHU216HW,2013-02-09 02:42:00,
2013-02-08 21:47:00,56.9,50.4,30.07,NW,315,0.0,0.4,79,0.00,,,0.00,WUHU216HW,2013-02-09 02:47:00,
2013-02-08 21:52:00,56.5,50.0,30.07,NW,315,0.0,0.4,79,0.00,,,0.00,WUHU216HW,2013-02-09 02:52:00,
2013-02-08 21:57:00,56.5,50.4,30.07,NW,315,0.0,0.0,80,0.00,,,0.00,WUHU216HW,2013-02-09 02:57:00,
2013-02-08 22:02:00,56.3,50.2,30.07,NW,315,0.0,0.4,80,0.00,,,0.00,WUHU216HW,2013-02-09 03:02:00,
2013-02-08 22:07:00,56.2,50.0,30.08,NW,315,0.0,1.1,80,0.00,,,0.00,WUHU216HW,2013-02-09 03:07:00,
2013-02-08 22:12:00,56.2,50.0,30.08,WNW,293,0.2,1.1,80,0.00,,,0.00,WUHU216HW,2013-02-09 03:12:00,
2013-02-08 22:17:00,56.0,50.2,30.08,NW,315,0.0,1.1,81,0.00,,,0.00,WUHU216HW,2013-02-09 03:17:00,
2013-02-08 22:22:00,56.0,50.2,30.08,WNW,293,0.2,0.4,81,0.00,,,0.00,WUHU216HW,2013-02-09 03:22:00,
2013-02-08 22:27:00,55.8,50.1,30.08,North,0,0.2,1.8,81,0.00,,,0.00,WUHU216HW,2013-02-09 03:27:00,
2013-02-08 22:32:00,55.8,50.1,30.08,NW,315,0.0,1.8,81,0.00,,,0.00,WUHU216HW,2013-02-09 03:32:00,
2013-02-08 22:37:00,55.8,50.1,30.08,NW,315,0.0,0.4,81,0.00,,,0.00,WUHU216HW,2013-02-09 03:37:00,
2013-02-08 22:42:00,55.8,50.1,30.08,WNW,293,0.0,0.2,81,0.00,,,0.00,WUHU216HW,2013-02-09 03:42:00,
2013-02-08 22:47:00,55.8,50.1,30.08,NW,315,0.0,1.1,81,0.00,,,0.00,WUHU216HW,2013-02-09 03:47:00,
2013-02-08 22:52:00,55.6,49.9,30.08,NW,315,0.2,1.1,81,0.00,,,0.00,WUHU216HW,2013-02-09 03:52:00,
2013-02-08 22:57:00,55.4,49.3,30.08,NW,315,0.0,0.2,80,0.00,,,0.00,WUHU216HW,2013-02-09 03:57:00,
2013-02-08 23:02:00,55.4,49.3,30.08,NW,315,0.0,0.4,80,0.00,,,0.00,WUHU216HW,2013-02-09 04:02:00,
2013-02-08 23:07:00,55.3,49.1,30.08,West,270,0.0,0.4,80,0.00,,,0.00,WUHU216HW,2013-02-09 04:07:00,
2013-02-08 23:12:00,55.1,49.0,30.08,West,270,0.0,0.4,80,0.00,,,0.00,WUHU216HW,2013-02-09 04:12:00,
2013-02-08 23:17:00,54.9,49.1,30.08,NW,315,0.2,0.4,81,0.00,,,0.00,WUHU216HW,2013-02-09 04:17:00,
2013-02-08 23:22:00,54.9,49.1,30.08,West,270,0.2,0.7,81,0.00,,,0.00,WUHU216HW,2013-02-09 04:22:00,
2013-02-08 23:27:00,54.9,49.1,30.08,NW,315,0.0,0.7,81,0.00,,,0.00,WUHU216HW,2013-02-09 04:27:00,
2013-02-08 23:32:00,54.7,49.0,30.08,WNW,293,0.2,0.7,81,0.00,,,0.00,WUHU216HW,2013-02-09 04:32:00,
2013-02-08 23:37:00,54.7,49.3,30.09,NW,315,0.0,0.4,82,0.00,,,0.00,WUHU216HW,2013-02-09 04:37:00,
2013-02-08 23:42:00,54.7,49.3,30.09,NNW,338,0.0,2.2,82,0.00,,,0.00,WUHU216HW,2013-02-09 04:42:00,
2013-02-08 23:47:00,54.7,49.3,30.09,WNW,293,0.4,2.2,82,0.00,,,0.00,WUHU216HW,2013-02-09 04:47:00,
2013-02-08 23:52:00,54.5,49.1,30.09,NNW,338,0.7,1.8,82,0.00,,,0.00,WUHU216HW,2013-02-09 04:52:00,
2013-02-08 23:57:00,54.5,49.1,30.09,WNW,293,0.0,0.7,82,0.00,,,0.00,WUHU216HW,2013-02-09 04:57:00,